Showing default

OPS 9346 (IDSCS 24), 3289

Orbit data source: Space-Track

OPS 9346 (IDSCS 24), 3289 is a payload satellite owned by SAMSO (US) in GEO that was launched on Thu, 13 Jun 1968 UTC via a TITAN IIIC launch vehicle from the Air Force Eastern Test Range (AFETR). Payload-class satellites include a variety of spacecraft equipped with specific instruments for various scientific and technological missions. These include communications satellites like Starlink; space stations such as the ISS; scientific satellites like the Hubble; Earth observation satellites from companies like Planet Labs, Umbra, and HawkEye 360; GPS; miniature CubeSats for education and research; and military/defense satellites.

Loading next visibility...
Identifier
3289, 1968-050F
Orbit
GEO
Country
Flag of USUS
Related business
Manufacturer
Philco-Ford
Mission
Non-operational spacecraft
Bus & Motor
IDCSP, Unknown motor
Mass
45 kg wet, 45 kg dry
Launch date (UTC)
1968-06-13 (58 years ago)
Launch vehicle
TITAN IIIC
Launch site
Air Force Eastern Test Range (AFETR)
Object type
Payload
Rocket body
Debris
Shape & HBR
Unknown
Radar Cross Section
Medium (>0.1 m² and <1 m²)

Expand to show TLE details & history
Last TLE update: 15 hours ago

TLE from 15 hours ago
0 OPS 9346 (IDSCS 24)
1 03289U 68050F   26033.97620131 -.00000103  00000-0  00000-0 0  9999
2 03289   6.8022  54.5816 0044939 139.2805 229.3699  1.07287642 49211
Epoch: 2026-02-02T23:25Z
TLE epoch observation values (Epoch: 2026-02-02T23:25:43.793Z)
Latitude
0.9639°
Longitude
-61.78564°
Altitude
34,044.53 km
Speed
3.136 km/s
True Right ascension
04h 11m 14s
True Declination
0° 57' 46"
Sunlit
Object was in daylight at epoch
Visualization orbit readout
Latitude
Unknown
Longitude
Unknown
Altitude
Unknown
Speed
Unknown
Apparent Right ascension
Unknown
Apparent Declination
Unknown
Sunlit
N/A
Visualization observer readout
Local Sidereal Time
16:48:21
Azimuth
Unknown
Elevation
Unknown
Doppler factor
Unknown
Orbital elements
Apogee altitude
34,110.001 km
Perigee altitude
33,747.73 km
Semi-major axis
40,307.002 km
Eccentricity
0.00449
Inclination
6.8022°
RAAN
54.5816°
Arg. of periapsis
139.2805°
True anomaly
228.98051°
Mean anomaly
229.3699°
Eccentric anomaly
229.17506°
Mean motion
0.26821 °/min
Orbital period
1,342.24 mins
BSTAR
0
Loading maneuver chart data...
Computing Atmospheric mass density...
Loading historical data...
Loading historical data...
Loading historical data...
Loading historical data...
Loading historical data...
Loading historical data...
Loading historical data...

Documentation

Showing up to 5 results
|